Butte, MT

5:16 AM MDT on September 28, 2016 (GMT -0600)
Mooney

Weather History for KBTM - August, 2014

Change the Weather History Date:

Sunday, August 10, 2014

  Actual Average Record
Temperature  
Mean Temperature 66 °F 63 °F  
Max Temperature 86 °F 81 °F 96 °F (1928)
Min Temperature 46 °F 45 °F 35 °F (2016)
Degree Days  
Heating Degree Days 0 3  
Month to date heating degree days 8 24  
Since 1 June heating degree days 396 411  
Since 1 July heating degree days 43 124  
Cooling Degree Days 1 1  
Month to date cooling degree days 7 12  
Year to date cooling degree days 68 63  
Since 1 June cooling degree days 68 63  
Growing Degree Days 15 (Base 50)    
Moisture  
Dew Point 38 °F    
Average Humidity 44    
Maximum Humidity 71    
Minimum Humidity 17    
Precipitation  
Precipitation 0.00 in 0.04 in 0.51 in (2010)
Month to date precipitation 0.25 0.42  
Year to date precipitation 8.65 8.94  
Sea Level Pressure  
Sea Level Pressure 30.17 in    
Wind  
Wind Speed 5 mph (NE)    
Max Wind Speed 17 mph    
Max Gust Speed 24 mph    
Visibility 10 miles    
Events      
T = Trace of Precipitation, MM = Missing Value Source: NWS Daily Summary

Daily Weather History Graph

Daily Weather History Graph

Search for Another Location

Airport or City:

Trip Planner

Search our weather history database for the weather conditions in past years. The results will help you decide how hot, cold, wet, or windy it might be!

Date:

Astronomy

Aug. 10, 2014 Rise Set
Actual Time 6:23 AM MDT 8:46 PM MDT
Civil Twilight 5:50 AM MDT 9:19 PM MDT
Nautical Twilight 5:08 AM MDT 10:00 PM MDT
Astronomical Twilight 4:21 AM MDT 10:47 PM MDT
Moon 8:30 PM MDT (8/10) 6:23 AM MDT (8/10)
Length of Visible Light 15h 29m
Length of Day
14h 22m
Full, 100% of the Moon is Illuminated
Aug 10
Full
Aug 10
Full
Aug 17
Last Quarter
Aug 25
New
Sep 2
First Quarter

Hourly Weather History & Observations

Time (MDT) Temp. Windchill Dew Point Humidity Pressure Visibility Wind Dir Wind Speed Gust Speed Precip Events Conditions
12:53 AM 53.1 °F - 39.9 °F 61% 30.14 in 10.0 mi SE 6.9 mph - N/A   Clear
1:53 AM 54.0 °F - 39.0 °F 57% 30.15 in 10.0 mi SSE 5.8 mph - N/A   Clear
2:53 AM 50.0 °F - 37.9 °F 63% 30.15 in 10.0 mi SE 8.1 mph - N/A   Clear
3:53 AM 53.1 °F - 39.0 °F 59% 30.15 in 10.0 mi Calm Calm - N/A   Clear
4:53 AM 51.1 °F - 39.0 °F 63% 30.15 in 10.0 mi Calm Calm - N/A   Clear
5:53 AM 48.9 °F - 39.0 °F 69% 30.17 in 10.0 mi SE 3.5 mph - N/A   Clear
6:53 AM 46.0 °F 44.8 °F 37.9 °F 73% 30.19 in 10.0 mi South 3.5 mph - N/A   Clear
7:53 AM 48.2 °F - 39.2 °F 71% 30.34 in 10.0 mi Calm Calm - N/A   Clear
8:53 AM 57.9 °F - 43.0 °F 58% 30.20 in 10.0 mi Calm Calm - N/A   Clear
9:53 AM 64.0 °F - 44.1 °F 48% 30.19 in 10.0 mi Variable 3.5 mph - N/A   Clear
10:53 AM 72.0 °F - 43.0 °F 35% 30.17 in 10.0 mi Variable 3.5 mph - N/A   Clear
11:53 AM 78.1 °F - 37.0 °F 23% 30.17 in 10.0 mi North 8.1 mph - N/A   Clear
12:53 PM 80.1 °F - 36.0 °F 20% 30.16 in 10.0 mi North 9.2 mph - N/A   Clear
1:53 PM 82.4 °F - 35.6 °F 19% 30.31 in 10.0 mi North 8.1 mph - N/A   Clear
2:53 PM 82.0 °F - 36.0 °F 19% 30.14 in 10.0 mi Variable 5.8 mph 16.1 mph N/A   Clear
3:53 PM 82.9 °F - 36.0 °F 19% 30.12 in 10.0 mi Calm Calm - N/A   Clear
4:53 PM 84.0 °F - 36.0 °F 18% 30.11 in 10.0 mi Variable 5.8 mph - N/A   Clear
5:53 PM 84.2 °F - 35.6 °F 18% 30.27 in 10.0 mi NNW 10.4 mph - N/A   Clear
6:53 PM 82.9 °F - 34.0 °F 17% 30.11 in 10.0 mi NW 10.4 mph - N/A   Clear
7:53 PM 81.0 °F - 35.1 °F 19% 30.11 in 10.0 mi North 5.8 mph - N/A   Clear
8:53 PM 75.9 °F - 34.0 °F 22% 30.11 in 10.0 mi North 8.1 mph - N/A   Clear
10:53 PM 62.1 °F - 36.0 °F 38% 30.15 in 10.0 mi ESE 6.9 mph - N/A   Clear
11:53 PM 61.0 °F - 34.0 °F 36% 30.14 in 10.0 mi Calm Calm - N/A   Clear